TimeEDT,TemperatureF,Dew PointF,Humidity,Sea Level PressureIn,VisibilityMPH,Wind Direction,Wind SpeedMPH,Gust SpeedMPH,PrecipitationIn,Events,Conditions,WindDirDegrees,DateUTC
12:53 AM,63.0,59.0,87,30.03,10.0,Calm,Calm,-,N/A,,Overcast,0,2013-10-01 04:53:00
1:53 AM,63.0,59.0,87,30.03,10.0,SSW,3.5,-,N/A,,Overcast,210,2013-10-01 05:53:00
2:53 AM,61.0,59.0,93,30.03,10.0,Calm,Calm,-,N/A,,Scattered Clouds,0,2013-10-01 06:53:00
3:53 AM,60.1,57.9,93,30.02,10.0,Calm,Calm,-,N/A,,Clear,0,2013-10-01 07:53:00
4:53 AM,59.0,57.0,93,30.03,10.0,Calm,Calm,-,N/A,,Clear,0,2013-10-01 08:53:00
5:53 AM,57.9,57.0,97,30.05,8.0,Calm,Calm,-,N/A,,Mostly Cloudy,0,2013-10-01 09:53:00
6:53 AM,57.9,55.9,93,30.06,10.0,Calm,Calm,-,N/A,,Mostly Cloudy,0,2013-10-01 10:53:00
7:53 AM,59.0,57.0,93,30.08,10.0,Calm,Calm,-,N/A,,Overcast,0,2013-10-01 11:53:00
8:53 AM,63.0,59.0,87,30.09,10.0,SSW,5.8,-,N/A,,Mostly Cloudy,200,2013-10-01 12:53:00
9:53 AM,66.9,60.1,79,30.10,10.0,SSW,5.8,-,N/A,,Overcast,210,2013-10-01 13:53:00
10:53 AM,69.1,61.0,75,30.10,10.0,SSW,5.8,-,N/A,,Overcast,200,2013-10-01 14:53:00
11:53 AM,71.1,60.1,68,30.10,10.0,SW,8.1,-,N/A,,Overcast,220,2013-10-01 15:53:00
12:53 PM,75.0,60.1,60,30.08,10.0,SSW,9.2,-,N/A,,Mostly Cloudy,210,2013-10-01 16:53:00
1:53 PM,75.9,62.1,62,30.07,10.0,SSW,8.1,-,N/A,,Overcast,210,2013-10-01 17:53:00
2:53 PM,77.0,62.1,60,30.05,10.0,SSW,8.1,-,N/A,,Mostly Cloudy,210,2013-10-01 18:53:00
3:53 PM,78.1,62.1,58,30.04,10.0,SSW,8.1,-,N/A,,Mostly Cloudy,210,2013-10-01 19:53:00
4:53 PM,78.1,61.0,56,30.03,10.0,SW,9.2,-,N/A,,Partly Cloudy,230,2013-10-01 20:53:00
5:53 PM,77.0,62.1,60,30.03,10.0,Variable,4.6,-,N/A,,Mostly Cloudy,0,2013-10-01 21:53:00
6:53 PM,75.0,62.1,64,30.03,10.0,WSW,3.5,-,N/A,,Clear,240,2013-10-01 22:53:00
7:53 PM,68.0,62.1,81,30.04,10.0,Calm,Calm,-,N/A,,Clear,0,2013-10-01 23:53:00
8:53 PM,64.9,61.0,87,30.06,10.0,Calm,Calm,-,N/A,,Clear,0,2013-10-02 00:53:00
9:53 PM,64.0,61.0,90,30.06,10.0,Calm,Calm,-,N/A,,Clear,0,2013-10-02 01:53:00
10:53 PM,62.1,60.1,93,30.06,10.0,Calm,Calm,-,N/A,,Clear,0,2013-10-02 02:53:00
11:53 PM,61.0,59.0,93,30.07,8.0,Calm,Calm,-,N/A,,Clear,0,2013-10-02 03:53:00